Camden, NC

3:44 PM EDT on September 26, 2016 (GMT -0400)
Elizabeth City Cgas-Regional

Weather History for KECG - August, 2012

Change the Weather History Date:

Saturday, August 25, 2012

  Actual Average Record
Temperature  
Mean Temperature 81 °F 77 °F  
Max Temperature 89 °F 86 °F 97 °F (1936)
Min Temperature 72 °F 68 °F 51 °F (1952)
Degree Days  
Heating Degree Days 0 0  
Month to date heating degree days 0 0  
Since 1 June heating degree days 1 3  
Since 1 July heating degree days 0 0  
Cooling Degree Days 16 12  
Month to date cooling degree days 405 324  
Year to date cooling degree days 1733 1228  
Since 1 June cooling degree days 1365 1064  
Growing Degree Days 32 (Base 50)    
Moisture  
Dew Point 71 °F    
Average Humidity 71    
Maximum Humidity 87    
Minimum Humidity 55    
Precipitation  
Precipitation 0.02 in 0.23 in 3.14 in (1955)
Month to date precipitation 6.07 5.45  
Year to date precipitation 36.41 32.77  
Snow  
Snow 0.00 in - 0.00 in (2002)
Month to date snowfall 0.0  
Since 1 July snowfall 0.0  
Snow Depth 0.00 in    
Sea Level Pressure  
Sea Level Pressure 30.07 in    
Wind  
Wind Speed 10 mph (ESE)    
Max Wind Speed 20 mph    
Max Gust Speed 26 mph    
Visibility 10 miles    
Events Rain    
T = Trace of Precipitation, MM = Missing Value Source: NWS Daily Summary

Daily Weather History Graph

Daily Weather History Graph

Search for Another Location

Airport or City:

Trip Planner

Search our weather history database for the weather conditions in past years. The results will help you decide how hot, cold, wet, or windy it might be!

Date:

Astronomy

Aug. 25, 2012 Rise Set
Actual Time 6:31 AM EDT 7:41 PM EDT
Civil Twilight 6:04 AM EDT 8:08 PM EDT
Nautical Twilight 5:32 AM EDT 8:39 PM EDT
Astronomical Twilight 4:59 AM EDT 9:12 PM EDT
Moon 3:06 PM EDT (8/25) 12:18 AM EDT (8/25)
Length of Visible Light 14h 03m
Length of Day
13h 10m
Waxing Gibbous, 62% of the Moon is Illuminated
Aug 25
Waxing Gibbous
Aug 31
Full
Sep 8
Last Quarter
Sep 15
New
Sep 22
First Quarter

Hourly Weather History & Observations

Time (EDT) Temp. Heat Index Dew Point Humidity Pressure Visibility Wind Dir Wind Speed Gust Speed Precip Events Conditions
12:54 AM 77.0 °F - 70.0 °F 79% 30.08 in 10.0 mi NE 16.1 mph - 0.02 in Rain Light Rain
1:12 AM 77.0 °F - 69.8 °F 78% 30.08 in 10.0 mi NE 10.4 mph - 0.01 in Rain Light Rain
1:54 AM 75.9 °F - 71.1 °F 85% 30.07 in 10.0 mi NE 6.9 mph - 0.01 in   Scattered Clouds
2:54 AM 75.9 °F - 71.1 °F 85% 30.06 in 10.0 mi East 11.5 mph 19.6 mph N/A   Partly Cloudy
3:33 AM 77.0 °F - 71.6 °F 83% 30.05 in 10.0 mi ENE 11.5 mph - N/A   Scattered Clouds
3:45 AM 77.0 °F - 71.6 °F 83% 30.05 in 10.0 mi ENE 9.2 mph - N/A   Mostly Cloudy
3:54 AM 77.0 °F - 72.0 °F 84% 30.06 in 10.0 mi ENE 11.5 mph - N/A   Mostly Cloudy
4:07 AM 77.0 °F - 71.6 °F 83% 30.05 in 10.0 mi ENE 11.5 mph - N/A   Scattered Clouds
4:54 AM 75.9 °F - 70.0 °F 82% 30.03 in 10.0 mi ENE 15.0 mph 19.6 mph N/A   Partly Cloudy
5:54 AM 75.9 °F - 70.0 °F 82% 30.04 in 10.0 mi ENE 10.4 mph - N/A   Mostly Cloudy
6:54 AM 77.0 °F - 71.1 °F 82% 30.03 in 10.0 mi East 15.0 mph - N/A   Mostly Cloudy
7:54 AM 78.1 °F - 73.0 °F 84% 30.06 in 10.0 mi East 11.5 mph - 0.01 in   Mostly Cloudy
8:22 AM 78.8 °F - 73.4 °F 83% 30.06 in 10.0 mi East 8.1 mph - 0.00 in   Overcast
8:54 AM 80.1 °F 84.5 °F 73.9 °F 81% 30.06 in 10.0 mi ESE 11.5 mph - 0.00 in   Mostly Cloudy
9:54 AM 82.9 °F 87.5 °F 71.1 °F 67% 30.06 in 10.0 mi ESE 15.0 mph 21.9 mph N/A   Scattered Clouds
10:54 AM 84.0 °F 88.4 °F 70.0 °F 63% 30.06 in 10.0 mi ESE 15.0 mph 24.2 mph N/A   Clear
12:54 PM 88.0 °F 93.8 °F 71.1 °F 57% 30.05 in 10.0 mi SE 15.0 mph 21.9 mph N/A   Scattered Clouds
1:54 PM 87.1 °F 92.0 °F 70.0 °F 57% 30.06 in 10.0 mi SSE 11.5 mph 21.9 mph N/A   Partly Cloudy
2:54 PM 88.0 °F 92.9 °F 70.0 °F 55% 30.04 in 10.0 mi SSE 12.7 mph 23.0 mph N/A   Scattered Clouds
3:54 PM 87.8 °F 92.6 °F 69.8 °F 55% 30.05 in 10.0 mi South 10.4 mph 19.6 mph N/A   Scattered Clouds
4:54 PM 87.1 °F 91.3 °F 69.1 °F 55% 30.06 in 10.0 mi SSE 11.5 mph - N/A   Partly Cloudy
5:54 PM 86.0 °F 90.7 °F 70.0 °F 59% 30.06 in 10.0 mi South 10.4 mph - N/A   Clear
6:54 PM 82.9 °F 86.5 °F 69.1 °F 63% 30.07 in 10.0 mi SSE 8.1 mph - N/A   Clear
7:54 PM 81.0 °F 83.8 °F 68.0 °F 65% 30.09 in 10.0 mi South 6.9 mph - N/A   Clear
8:54 PM 79.0 °F - 69.1 °F 72% 30.10 in 10.0 mi SSE 5.8 mph - N/A   Clear
9:54 PM 75.9 °F - 69.1 °F 79% 30.11 in 10.0 mi SW 3.5 mph - N/A   Clear
10:54 PM 75.0 °F - 70.0 °F 84% 30.12 in 10.0 mi Calm Calm - N/A   Clear
11:54 PM 75.0 °F - 69.1 °F 82% 30.12 in 10.0 mi Calm Calm - N/A   Clear